Date String (YYYY-MM-DD hh:mm:ss) UTC,Instrument flags,Ambient pressure (hPa),Sample flow (lpm),Bypass flow (lpm),Sample temperature (°C),Ambient temperature (°C),ASC tube jacket temperature (°C),LED temperature (°C),Box temperature (°C),Sample RH (%),Span deviation,Mass concentration (μg/m³),Mass concentration (μg/m³),Mass concentration (μg/m³)
DateTimeUTC,F1_M11,P_M11,Q1_M11,Q2_M11,T1_M11,T2_M11,T3_M11,T4_M11,T5_M11,U1_M11,ZSPAN_M11,X2_M11,X0_M11,X1_M11
2021-11-06 13:00:00,,0828.1,5.00,0.00,27.2,26.3,00.0,36.3,28.9,07.6,0000.0,0001.16,0001.79,0000.88
2021-11-06 13:01:00,,0828.1,5.00,0.00,27.2,26.3,00.0,36.3,28.9,07.4,0000.0,0001.19,0001.85,0000.88
2021-11-06 13:02:00,,0828.1,5.00,0.00,27.2,26.3,00.0,36.3,28.9,07.5,0000.0,0001.22,0002.01,0000.88
2021-11-06 13:03:00,,0828.1,4.99,0.00,27.2,26.3,00.0,36.3,28.9,07.6,0000.0,0001.23,0002.04,0000.89
2021-11-06 13:04:00,,0828.0,5.01,0.00,27.2,26.3,00.0,36.3,28.9,07.6,0000.0,0001.22,0001.99,0000.89
2021-11-06 13:05:00,,0828.0,5.00,0.00,27.2,26.2,00.0,36.3,28.9,07.4,0000.0,0001.20,0001.95,0000.88
2021-11-06 13:06:00,,0828.0,5.00,0.00,27.2,26.2,00.0,36.3,28.9,07.4,0000.0,0001.20,0001.96,0000.86
2021-11-06 13:07:00,,0828.0,4.99,0.00,27.2,26.2,00.0,36.3,28.9,07.4,0000.0,0001.22,0002.05,0000.85
2021-11-06 13:08:00,,0828.0,4.99,0.00,27.2,26.2,00.0,36.2,28.9,07.2,0000.0,0001.24,0002.19,0000.85
2021-11-06 13:09:00,,0828.0,5.01,0.00,27.2,26.1,00.0,36.2,28.8,07.1,0000.0,0001.21,0002.15,0000.85
2021-11-06 13:10:00,,0828.0,5.00,0.00,27.2,26.1,00.0,36.2,28.9,06.8,0000.0,0001.19,0002.16,0000.84
2021-11-06 13:11:00,,0828.0,4.99,0.00,27.2,26.1,00.0,36.2,28.9,06.7,0000.0,0001.16,0002.14,0000.83
2021-11-06 13:12:00,,0828.0,5.00,0.00,27.2,26.2,00.0,36.2,28.9,06.7,0000.0,0001.16,0002.19,0000.83
2021-11-06 13:13:00,,0827.9,5.01,0.00,27.2,26.2,00.0,36.2,28.9,06.7,0000.0,0001.15,0002.11,0000.82
2021-11-06 13:14:00,,0827.9,5.00,0.00,27.2,26.2,00.0,36.2,29.0,06.7,0000.0,0001.15,0002.14,0000.81
2021-11-06 13:15:00,,0827.9,5.01,0.00,27.2,26.2,00.0,36.2,28.9,06.7,0000.0,0001.15,0002.61,0000.80
2021-11-06 13:16:00,,0827.9,5.00,0.00,27.2,26.2,00.0,36.2,28.9,06.7,0000.0,0001.16,0003.06,0000.80
2021-11-06 13:17:00,,0827.9,4.99,0.00,27.2,26.2,00.0,36.2,28.9,06.7,0000.0,0001.17,0003.08,0000.81
2021-11-06 13:18:00,,0828.0,5.00,0.00,27.2,26.2,00.0,36.2,28.9,06.8,0000.0,0001.14,0003.00,0000.81
2021-11-06 13:19:00,,0828.0,5.00,0.00,27.2,26.2,00.0,36.2,28.9,06.8,0000.0,0001.14,0002.89,0000.81
2021-11-06 13:20:00,,0828.0,4.99,0.00,27.2,26.2,00.0,36.2,28.8,07.2,0000.0,0001.12,0002.81,0000.81
2021-11-06 13:21:00,,0827.9,4.98,0.00,27.1,26.1,00.0,36.2,28.8,07.3,0000.0,0001.11,0003.32,0000.81
2021-11-06 13:22:00,,0828.0,5.00,0.00,27.1,26.1,00.0,36.2,28.8,07.2,0000.0,0001.12,0003.40,0000.82
2021-11-06 13:23:00,,0827.9,5.01,0.00,27.1,26.1,00.0,36.2,28.8,06.7,0000.0,0001.07,0003.28,0000.81
2021-11-06 13:24:00,,0827.9,4.99,0.00,27.1,26.1,00.0,36.2,28.8,06.7,0000.0,0001.06,0003.27,0000.81
2021-11-06 13:25:00,,0827.9,4.99,0.00,27.1,26.1,00.0,36.2,28.9,06.8,0000.0,0001.05,0003.29,0000.81
2021-11-06 13:26:00,,0828.0,5.01,0.00,27.1,26.2,00.0,36.2,28.9,06.8,0000.0,0001.04,0002.98,0000.82
2021-11-06 13:27:00,,0828.0,5.00,0.00,27.1,26.2,00.0,36.2,28.9,07.1,0000.0,0001.05,0002.44,0000.82
2021-11-06 13:28:00,,0828.0,4.99,0.00,27.1,26.2,00.0,36.2,28.8,07.3,0000.0,0001.06,0002.41,0000.83
2021-11-06 13:29:00,,0828.0,5.01,0.00,27.1,26.2,00.0,36.2,28.8,07.7,0000.0,0001.10,0003.63,0000.83
2021-11-06 13:30:00,,0827.9,5.00,0.00,27.1,26.2,00.0,36.2,28.8,07.5,0000.0,0001.13,0004.15,0000.83
2021-11-06 13:31:00,,0828.0,5.00,0.00,27.1,26.1,00.0,36.2,28.8,06.9,0000.0,0001.16,0004.35,0000.83
2021-11-06 13:32:00,,0828.0,5.01,0.00,27.1,26.1,00.0,36.2,28.8,06.6,0000.0,0001.17,0003.74,0000.82
2021-11-06 13:33:00,,0827.9,4.99,0.00,27.1,26.1,00.0,36.2,28.8,06.5,0000.0,0001.16,0003.65,0000.82
2021-11-06 13:34:00,,0827.9,5.00,0.00,27.0,26.1,00.0,36.1,28.8,06.5,0000.0,0001.20,0003.80,0000.83
2021-11-06 13:35:00,,0827.9,5.00,0.00,27.0,26.0,00.0,36.1,28.8,06.5,0000.0,0001.18,0004.14,0000.82
2021-11-06 13:36:00,,0828.0,5.01,0.00,27.0,26.0,00.0,36.1,28.8,06.6,0000.0,0001.16,0004.05,0000.81
2021-11-06 13:37:00,,0827.9,5.00,0.00,27.0,26.0,00.0,36.1,28.7,07.0,0000.0,0001.16,0004.11,0000.81
2021-11-06 13:38:00,,0828.0,5.00,0.00,27.0,26.0,00.0,36.1,28.7,07.2,0000.0,0001.17,0004.16,0000.80
2021-11-06 13:39:00,,0827.9,4.99,0.00,27.0,26.0,00.0,36.1,28.7,07.4,0000.0,0001.17,0004.23,0000.80
2021-11-06 13:40:00,,0828.0,4.99,0.00,27.0,26.0,00.0,36.1,28.7,07.0,0000.0,0001.16,0003.10,0000.80
2021-11-06 13:41:00,,0828.0,5.00,0.00,27.0,26.0,00.0,36.1,28.7,07.0,0000.0,0001.16,0002.65,0000.81
2021-11-06 13:42:00,,0828.0,4.99,0.00,27.0,26.0,00.0,36.1,28.7,06.9,0000.0,0001.15,0002.53,0000.82
2021-11-06 13:43:00,,0827.9,4.99,0.00,27.0,26.0,00.0,36.1,28.7,06.9,0000.0,0001.16,0002.59,0000.83
2021-11-06 13:44:00,,0828.0,5.00,0.00,27.0,26.0,00.0,36.0,28.7,06.9,0000.0,0001.15,0002.56,0000.83
2021-11-06 13:45:00,,0828.0,4.99,0.00,26.9,26.0,00.0,36.0,28.7,07.2,0000.0,0001.16,0002.43,0000.83
2021-11-06 13:46:00,,0828.0,5.00,0.00,26.9,26.0,00.0,36.0,28.7,07.3,0000.0,0001.17,0002.02,0000.85
2021-11-06 13:47:00,,0827.9,5.00,0.00,26.9,25.9,00.0,36.0,28.6,07.4,0000.0,0001.17,0002.00,0000.86
2021-11-06 13:48:00,,0827.9,5.00,0.00,26.9,25.9,00.0,36.0,28.6,07.3,0000.0,0001.15,0003.29,0000.86
2021-11-06 13:49:00,,0827.9,4.99,0.00,26.8,25.9,00.0,36.0,28.6,07.2,0000.0,0001.12,0003.20,0000.86
2021-11-06 13:50:00,,0827.8,5.00,0.00,26.8,25.8,00.0,36.0,28.5,07.1,0000.0,0001.09,0003.10,0000.86
2021-11-06 13:51:00,,0827.8,4.99,0.00,26.8,25.8,00.0,35.9,28.6,07.3,0000.0,0001.11,0003.13,0000.87
2021-11-06 13:52:00,,0827.9,5.00,0.00,26.8,25.8,00.0,35.9,28.5,07.3,0000.0,0001.12,0003.22,0000.88
2021-11-06 13:53:00,,0827.8,5.02,0.00,26.7,25.8,00.0,35.9,28.5,07.5,0000.0,0001.20,0003.39,0000.91
2021-11-06 13:54:00,,0827.8,5.00,0.00,26.7,25.7,00.0,35.9,28.5,07.8,0000.0,0001.27,0003.51,0000.94
2021-11-06 13:55:00,,0827.9,5.01,0.00,26.7,25.7,00.0,35.9,28.5,07.8,0000.0,0001.36,0003.69,0000.96
2021-11-06 13:56:00,,0827.9,4.99,0.00,26.7,25.7,00.0,35.9,28.5,07.8,0000.0,0001.37,0004.46,0000.98
2021-11-06 13:57:00,,0827.9,5.00,0.00,26.7,25.7,00.0,35.8,28.4,07.6,0000.0,0001.44,0004.68,0001.01
2021-11-06 13:58:00,,0827.9,4.99,0.00,26.7,25.7,00.0,35.8,28.3,07.7,0000.0,0001.46,0004.71,0001.02
2021-11-06 13:59:00,,0827.9,5.01,0.00,26.6,25.7,00.0,35.8,28.4,07.6,0000.0,0001.49,0003.63,0001.04
